EN

Hourly Weather Spicevka

Today, 1 October, Thursday

Time Temperature Precipitation Wind Pressure Humidity
00:00 +12°C° 0 mm 7 mps 738 mmHg 68%
01:00 +12°C° 0 mm 8 mps 737 mmHg 67%
02:00 +12°C° 0 mm 8 mps 737 mmHg 66%
03:00 +12°C° 0 mm 8 mps 737 mmHg 65%
04:00 +12°C° 0 mm 8 mps 737 mmHg 65%
05:00 +12°C° 0 mm 8 mps 737 mmHg 65%
06:00 +12°C° 0 mm 8 mps 737 mmHg 64%
07:00 +13°C° 0 mm 9 mps 737 mmHg 60%
08:00 +16°C° 0 mm 10 mps 737 mmHg 55%
09:00 +17°C° 0 mm 10 mps 737 mmHg 51%
10:00 +18°C° 0 mm 11 mps 737 mmHg 47%
11:00 +21°C° 0 mm 11 mps 737 mmHg 44%
12:00 +22°C° 0 mm 12 mps 736 mmHg 40%
13:00 +22°C° 0 mm 11 mps 736 mmHg 37%
14:00 +23°C° 0 mm 11 mps 736 mmHg 34%
15:00 +23°C° 0 mm 11 mps 736 mmHg 31%
16:00 +22°C° 0.1 mm 10 mps 736 mmHg 33%
17:00 +21°C° 0.1 mm 9 mps 736 mmHg 36%
18:00 +20°C° 0.1 mm 7 mps 737 mmHg 39%
19:00 +18°C° 0.1 mm 8 mps 737 mmHg 43%
20:00 +17°C° 0.1 mm 8 mps 737 mmHg 47%
21:00 +16°C° 0.1 mm 9 mps 738 mmHg 51%
22:00 +15°C° 0 mm 8 mps 738 mmHg 54%
23:00 +15°C° 0 mm 7 mps 738 mmHg 57%

Tomorrow, 2 October, Friday

Time Temperature Precipitation Wind Pressure Humidity
00:00 +14°C° 0 mm 7 mps 738 mmHg 60%
01:00 +14°C° 0 mm 6 mps 738 mmHg 61%
02:00 +14°C° 0 mm 6 mps 738 mmHg 62%
03:00 +13°C° 0 mm 5 mps 738 mmHg 63%
04:00 +13°C° 0 mm 5 mps 738 mmHg 62%
05:00 +13°C° 0 mm 4 mps 738 mmHg 62%
06:00 +13°C° 0 mm 3 mps 738 mmHg 61%
07:00 +14°C° 0 mm 4 mps 739 mmHg 58%
08:00 +16°C° 0 mm 5 mps 739 mmHg 54%
09:00 +17°C° 0 mm 6 mps 739 mmHg 51%
10:00 +20°C° 0 mm 6 mps 739 mmHg 47%
11:00 +21°C° 0 mm 6 mps 739 mmHg 44%
12:00 +22°C° 0 mm 6 mps 739 mmHg 40%
13:00 +23°C° 0 mm 5 mps 739 mmHg 43%
14:00 +23°C° 0 mm 5 mps 739 mmHg 45%
15:00 +23°C° 0 mm 5 mps 739 mmHg 48%
16:00 +22°C° 0.1 mm 4 mps 739 mmHg 50%
17:00 +21°C° 0.1 mm 3 mps 740 mmHg 53%
18:00 +20°C° 0.1 mm 2 mps 740 mmHg 56%
19:00 +20°C° 0.3 mm 3 mps 740 mmHg 58%
20:00 +19°C° 0.3 mm 4 mps 741 mmHg 60%
21:00 +17°C° 0.3 mm 5 mps 741 mmHg 62%
22:00 +17°C° 0.1 mm 5 mps 741 mmHg 64%
23:00 +16°C° 0.1 mm 5 mps 741 mmHg 67%

Day after tomorrow, 3 October, Saturday

Time Temperature Precipitation Wind Pressure Humidity
00:00 +15°C° 0.1 mm 6 mps 741 mmHg 69%
01:00 +15°C° 0.1 mm 5 mps 741 mmHg 70%
02:00 +15°C° 0.1 mm 4 mps 741 mmHg 71%
03:00 +15°C° 0.1 mm 4 mps 742 mmHg 72%
04:00 +14°C° 0 mm 3 mps 742 mmHg 81%
05:00 +14°C° 0 mm 3 mps 742 mmHg 81%
06:00 +14°C° 0 mm 3 mps 742 mmHg 82%
07:00 +16°C° 0 mm 3 mps 742 mmHg 78%
08:00 +15°C° 0 mm 4 mps 742 mmHg 75%
09:00 +17°C° 0 mm 4 mps 742 mmHg 71%
10:00 +18°C° 0 mm 4 mps 742 mmHg 65%
11:00 +20°C° 0 mm 4 mps 742 mmHg 59%
12:00 +22°C° 0 mm 4 mps 742 mmHg 53%
13:00 +22°C° 0 mm 4 mps 742 mmHg 51%
14:00 +22°C° 0 mm 4 mps 742 mmHg 49%
15:00 +23°C° 0 mm 4 mps 742 mmHg 47%
16:00 +21°C° 0 mm 4 mps 742 mmHg 50%
17:00 +20°C° 0 mm 4 mps 742 mmHg 54%
18:00 +18°C° 0 mm 4 mps 742 mmHg 57%
19:00 +17°C° 0 mm 4 mps 742 mmHg 60%
20:00 +16°C° 0 mm 3 mps 742 mmHg 63%
21:00 +16°C° 0 mm 3 mps 743 mmHg 67%
22:00 +14°C° 0 mm 3 mps 742 mmHg 69%
23:00 +15°C° 0 mm 2 mps 742 mmHg 72%

4 October, Sunday

Time Temperature Precipitation Wind Pressure Humidity
00:00 +14°C° 0 mm 2 mps 742 mmHg 74%
01:00 +14°C° 0 mm 2 mps 742 mmHg 79%
02:00 +14°C° 0 mm 2 mps 742 mmHg 83%
03:00 +13°C° 0 mm 2 mps 742 mmHg 87%
04:00 +13°C° 0 mm 2 mps 742 mmHg 89%
05:00 +13°C° 0 mm 2 mps 742 mmHg 91%
06:00 +12°C° 0 mm 3 mps 743 mmHg 93%
07:00 +13°C° 0 mm 3 mps 743 mmHg 87%
08:00 +16°C° 0 mm 3 mps 743 mmHg 81%
09:00 +17°C° 0 mm 4 mps 743 mmHg 75%
10:00 +19°C° 0 mm 4 mps 743 mmHg 67%
11:00 +21°C° 0 mm 4 mps 742 mmHg 59%
12:00 +23°C° 0 mm 4 mps 742 mmHg 52%
13:00 +25°C° 0 mm 4 mps 742 mmHg 49%
14:00 +25°C° 0 mm 4 mps 742 mmHg 46%
15:00 +26°C° 0 mm 4 mps 742 mmHg 43%
16:00 +24°C° 0 mm 3 mps 742 mmHg 48%
17:00 +22°C° 0 mm 3 mps 742 mmHg 52%
18:00 +20°C° 0 mm 3 mps 742 mmHg 56%
19:00 +19°C° 0 mm 3 mps 742 mmHg 57%
20:00 +19°C° 0 mm 3 mps 742 mmHg 58%
21:00 +18°C° 0 mm 4 mps 743 mmHg 59%
22:00 +17°C° 0 mm 3 mps 742 mmHg 62%
23:00 +16°C° 0 mm 3 mps 742 mmHg 65%

5 October, Monday

Time Temperature Precipitation Wind Pressure Humidity
00:00 +16°C° 0 mm 2 mps 742 mmHg 68%
01:00 +15°C° 0 mm 2 mps 742 mmHg 71%
02:00 +15°C° 0 mm 2 mps 742 mmHg 73%
03:00 +14°C° 0 mm 2 mps 742 mmHg 76%
04:00 +14°C° 0 mm 2 mps 742 mmHg 78%
05:00 +13°C° 0 mm 2 mps 742 mmHg 80%
06:00 +13°C° 0 mm 2 mps 743 mmHg 82%
07:00 +15°C° 0 mm 2 mps 743 mmHg 76%
08:00 +17°C° 0 mm 3 mps 743 mmHg 70%
09:00 +18°C° 0 mm 3 mps 742 mmHg 63%
10:00 +20°C° 0 mm 3 mps 742 mmHg 57%
11:00 +22°C° 0 mm 3 mps 742 mmHg 51%
12:00 +23°C° 0 mm 4 mps 742 mmHg 44%
13:00 +25°C° 0 mm 4 mps 742 mmHg 42%
14:00 +25°C° 0 mm 4 mps 742 mmHg 40%
15:00 +26°C° 0 mm 4 mps 742 mmHg 38%
16:00 +24°C° 0 mm 3 mps 742 mmHg 41%
17:00 +21°C° 0 mm 3 mps 742 mmHg 44%
18:00 +20°C° 0 mm 3 mps 742 mmHg 47%
19:00 +19°C° 0 mm 4 mps 742 mmHg 47%
20:00 +18°C° 0 mm 4 mps 742 mmHg 46%
21:00 +18°C° 0 mm 4 mps 743 mmHg 46%
22:00 +17°C° 0 mm 4 mps 743 mmHg 50%
23:00 +15°C° 0 mm 4 mps 743 mmHg 54%

6 October, Tuesday

Time Temperature Precipitation Wind Pressure Humidity
00:00 +14°C° 0 mm 4 mps 742 mmHg 58%
01:00 +14°C° 0 mm 4 mps 742 mmHg 67%
02:00 +13°C° 0 mm 4 mps 742 mmHg 76%
03:00 +12°C° 0 mm 4 mps 742 mmHg 85%
04:00 +12°C° 0 mm 4 mps 742 mmHg 86%
05:00 +12°C° 0 mm 5 mps 742 mmHg 86%
06:00 +12°C° 0 mm 5 mps 743 mmHg 87%
07:00 +13°C° 0 mm 5 mps 743 mmHg 78%
08:00 +15°C° 0 mm 6 mps 743 mmHg 69%
09:00 +16°C° 0 mm 7 mps 743 mmHg 60%
10:00 +18°C° 0 mm 7 mps 743 mmHg 53%
11:00 +21°C° 0 mm 8 mps 742 mmHg 46%
12:00 +22°C° 0 mm 8 mps 742 mmHg 39%
13:00 +23°C° 0 mm 8 mps 742 mmHg 38%
14:00 +23°C° 0 mm 8 mps 742 mmHg 37%
15:00 +24°C° 0 mm 8 mps 741 mmHg 36%
16:00 +22°C° 0 mm 7 mps 741 mmHg 38%
17:00 +21°C° 0 mm 6 mps 741 mmHg 40%
18:00 +20°C° 0 mm 6 mps 741 mmHg 42%
19:00 +18°C° 0 mm 7 mps 741 mmHg 42%
20:00 +17°C° 0 mm 7 mps 742 mmHg 43%
21:00 +16°C° 0 mm 8 mps 742 mmHg 43%
22:00 +16°C° 0 mm 8 mps 741 mmHg 47%
23:00 +15°C° 0 mm 8 mps 741 mmHg 51%
Show more

We Need Your Consent

Meteoprog and our Service Providers may store and access personal data such as cookies, device identifiers or other similar technologies on your device and process such data to personalise content and ads, as well as provide social media features and to analyse the traffic.

  • Store and/or access information on your device

    Cookies, device identifiers or other information can be stored or accessed on your device for the purposes indicated above.

  • Personalised ads and content, ad and content measurement, audience insights, and products development

    Ads and content can be personalised based on a profile. More data can be added to better personalise ads and content. Ad and content performance can be measured. Insights about the audience who saw the ads and content can be derived. Such data can be used to develop or improve user’s experience, systems and software.

By clicking ‘I Agree’ you will allow the use of indicated cookies, device identifiers, web beacons or other similar technologies. Your settings can be changed in the browser on your device.

For certain purposes, legitimate interests may be relied on, rather than consent. You can read more about this in our Privacy and Cookie Policy.